Tacoma Narrows, WA
on Wednesday, February 6, 2013

Wednesday
Previous Day Next Day
Daily Summary
 ActualAverageRecord
Temperature
Mean Temperature °F °F  
Max Temperature 48°F 46°F 63°F (2002)
Min Temperature 42°F 36°F 21°F (2014)
Degree Days
Heating Degree Days 20    
Moisture
Dew Point 39°F   
Average Humidity 79    
Maximum Humidity 87    
Minimum Humidity 61    
Precipitation
Precipitation 0.10 in in in ()
Wind
Wind Speed 11 mph   
Max Wind Speed 16 mph   
Max Gust Speed 24 mph   
Visibility 10 miles   
Events Rain   
Averages and records for this station are not official NWS values.
Key: T is trace of precipitation, MM is missing value
Source: NWS Daily Summary
Seasonal Weather Averages
Time(PST)TemperatureDew PointHumidity Pressure Visibility Wind DirectionWind SpeedGust SpeedPrecipitationEvents Conditions
12:53 AM 44.1°F 39.0°F 82% 29.98 in 10.0 miles South 13.8 mph - 0.00 in   Overcast
1:12 AM 44.6°F 39.2°F 81% 29.98 in 10.0 miles South 13.8 mph - 0.01 in Rain Light Rain
1:30 AM 44.6°F 39.2°F 81% 29.98 in 10.0 miles South 12.7 mph - 0.01 in   Overcast
1:53 AM 44.1°F 39.0°F 82% 29.99 in 10.0 miles South 10.4 mph 20.7 mph 0.01 in   Overcast
2:18 AM 42.8°F 39.2°F 87% 29.99 in 9.0 miles South 16.1 mph 24.2 mph 0.00 in   Overcast
2:31 AM 42.8°F 39.2°F 87% 29.99 in 10.0 miles South 11.5 mph 20.7 mph 0.00 in   Overcast
2:53 AM 43.0°F 39.0°F 86% 30.00 in 10.0 miles South 13.8 mph - 0.00 in   Overcast
3:30 AM 42.8°F 39.2°F 87% 29.99 in 10.0 miles South 15.0 mph 23.0 mph 0.00 in Rain Light Rain
3:53 AM 43.0°F 39.0°F 86% 30.01 in 10.0 miles South 15.0 mph - 0.00 in Rain Light Rain
4:53 AM 43.0°F 39.0°F 86% 30.03 in 10.0 miles South 12.7 mph - 0.01 in   Overcast
5:53 AM 43.0°F 39.0°F 86% 30.04 in 10.0 miles South 9.2 mph - 0.01 in   Overcast
6:08 AM 42.8°F 39.2°F 87% 30.04 in 7.0 miles South 11.5 mph - 0.00 in Rain Light Rain
6:45 AM 42.8°F 39.2°F 87% 30.04 in 10.0 miles South 12.7 mph - 0.01 in   Overcast
6:53 AM 43.0°F 39.0°F 86% 30.04 in 10.0 miles South 10.4 mph - 0.01 in   Overcast
7:53 AM 43.0°F 39.0°F 86% 30.06 in 10.0 miles South 11.5 mph - 0.00 in   Mostly Cloudy
8:53 AM 44.1°F 37.9°F 79% 30.06 in 10.0 miles SSE 5.8 mph - N/A   Overcast
9:53 AM 45.0°F 37.9°F 76% 30.05 in 10.0 miles South 8.1 mph - N/A   Mostly Cloudy
10:53 AM 46.0°F 37.9°F 73% 30.04 in 10.0 miles SSW 9.2 mph - N/A   Overcast
11:53 AM 48.0°F 39.0°F 71% 30.02 in 10.0 miles South 8.1 mph - N/A   Overcast
12:53 PM 48.9°F 39.0°F 69% 30.00 in 10.0 miles SSW 10.4 mph - N/A   Overcast
1:53 PM 48.0°F 39.0°F 71% 29.99 in 10.0 miles South 10.4 mph - 0.01 in   Overcast
2:53 PM 46.9°F 39.0°F 74% 29.97 in 10.0 miles South 10.4 mph 19.6 mph 0.00 in Rain Light Rain
3:53 PM 46.0°F 39.9°F 79% 29.96 in 10.0 miles South 4.6 mph - 0.01 in Rain Light Rain
4:53 PM 45.0°F 41.0°F 86% 29.94 in 10.0 miles SSE 3.5 mph - 0.04 in Rain Light Rain
5:53 PM 46.0°F 39.9°F 79% 29.91 in 10.0 miles South 5.8 mph - 0.00 in Rain Light Rain
6:53 PM 45.0°F 39.0°F 80% 29.88 in 10.0 miles Calm Calm - 0.00 in   Overcast
7:53 PM 46.0°F 37.9°F 73% 29.86 in 10.0 miles Calm Calm - N/A   Overcast
8:53 PM 46.9°F 37.0°F 68% 29.83 in 10.0 miles Variable 3.5 mph - N/A   Overcast
9:53 PM 48.0°F 35.1°F 61% 29.81 in 10.0 miles Variable 4.6 mph - N/A   Overcast
10:53 PM 46.9°F 36.0°F 66% 29.80 in 10.0 miles South 3.5 mph - N/A   Overcast
11:53 PM 46.9°F 37.0°F 68% 29.80 in 10.0 miles South 9.2 mph - 0.00 in Rain Light Rain
Moon Phase
Feb. 06 Feb. 10 Feb. 17 Feb. 25 Mar. 04
Sunrise:07:28 AM (PST) Moon Rise:04:25 AM (PST)2/6
Sunset:05:20 PM (PST) Moon Set:01:37 PM (PST)2/6

Copyright © 2014 The Weather Underground, Inc.